Location: Carrières
(48.9495°N, 2.0407°E)
Time: 20:41:29
(UTC+00:00)

Courier 1B Rocket - Pass Details

Date: 15 April 2024
Orbit: 920 x 1201 km, 28.2° (Epoch: 25 May)

Event Time Altitude Azimuth Distance (km) Brightness Sun altitude
Rises 06:53:13 0° 219° (SW) 3,791 7.8 17.6°
Reaches altitude 10° 06:59:12 10° 180° (S) 2,750 7.5 18.5°
Maximum altitude 07:00:01 10° 173° (S) 2,721 7.6 18.7°
Drops below altitude 10° 07:00:49 10° 166° (SSE) 2,727 7.7 18.8°
Sets 07:06:32 0° 126° (SE) 3,606 9.0 19.7°
